#timestamp,LO_Frequency,Hit,StdDev 
1503878415.9,286046997.3,N,1.5
1503878435.7,286046999.6,N,1.4
1503878455.6,286046997.0,N,1.4
1503878475.4,286046997.0,N,1.5
1503878495.2,286046999.4,N,1.5
1503878515.1,286046996.7,N,1.5
1503878516.0,286046996.7,N,1.5
1503878535.8,286046999.0,N,1.5
1503878555.6,286046997.1,N,1.5
1503878575.5,286046996.8,N,1.5
1503878595.3,286046997.8,N,1.5
1503878615.2,286046994.9,Y,0.0
1503878635.9,286046997.4,P,0.6
1503878655.7,286046997.4,P,0.6
1503878675.6,286046997.9,P,0.5
1503878695.4,286046995.4,Y,0.0
1503878715.2,286046999.2,P,0.7
1503878735.1,286046999.2,N,0.6
1503878736.0,286046999.2,N,0.6
1503878755.8,286046996.8,Y,0.0
1503878775.6,286046999.4,P,0.3
1503878795.5,286046999.3,N,0.2
1503878815.3,286046999.4,N,0.2
1503878835.2,286046999.2,Y,0.0
1503878855.9,286046999.6,P,0.2
1503878875.7,286046996.7,P,1.3
1503878895.6,286046997.3,N,1.2
1503878915.4,286046997.7,N,1.1
1503878935.2,286046996.5,Y,0.0
1503878955.1,286047001.1,P,1.5
1503878956.0,286047001.1,N,1.4
1503878975.8,286046998.3,N,1.4
1503878995.6,286046998.9,N,1.3
1503879015.5,286046998.3,N,1.3
1503879035.3,286046998.9,N,1.2
1503879055.1,286046998.2,N,1.2
1503879075.9,286046998.1,N,1.2
1503879095.7,286046998.5,N,1.1
1503879115.5,286047000.8,N,1.2
1503879135.4,286046998.4,N,1.2
1503879155.2,286046998.9,N,1.1
1503879175.0,286046999.1,N,1.1
1503879206.0,286046999.2,E,nan
1503879215.9,286046998.8,N,0.0
1503879235.7,286046998.7,P,0.1
1503879255.6,286046998.8,P,0.0
1503879275.4,286046999.6,Y,0.0
1503879295.2,286046998.4,P,0.2
1503879315.1,286046998.6,P,0.1
1503879316.0,286046998.6,P,0.1
1503879335.8,286046998.6,Y,0.0
1503879355.6,286046999.9,P,0.7
1503879375.5,286047000.9,N,0.9
1503879395.3,286047000.5,N,0.9
1503879415.1,286047000.3,N,0.8
1503879435.9,286047000.4,N,0.7
1503879455.7,286047001.0,N,0.8
1503879475.6,286047000.9,N,0.7
1503879495.4,286046999.9,N,0.7
1503879515.2,286046999.9,N,0.7
1503879535.0,286046999.8,N,0.7
1503879536.0,286046999.8,N,0.6
1503879555.8,286047000.2,N,0.6
1503879575.6,286047000.1,N,0.6
1503879595.5,286047000.2,N,0.6
1503879615.3,286047002.4,Y,0.0
1503879635.1,286047000.5,P,0.2
1503879655.9,286047000.3,N,0.1
1503879675.7,286047001.0,P,0.3
1503879695.5,286046998.1,Y,0.0
1503879715.4,286047001.1,P,0.3
1503879735.2,286046998.8,P,1.0
1503879755.0,286046998.6,N,1.1
1503879755.9,286046998.6,N,1.1
1503879775.8,286047001.1,N,1.1
1503879795.6,286046998.2,N,1.2
1503879815.4,286046998.1,N,1.2
1503879835.3,286046998.2,N,1.2
1503879855.1,286046998.4,N,1.2
1503879875.8,286046998.1,N,1.2
1503879895.7,286046998.4,N,1.1
1503879915.5,286046998.8,N,1.1
1503879935.3,286046998.7,N,1.0
1503879955.2,286046999.4,N,1.0
1503879975.0,286046996.5,Y,0.0
1503879975.9,286046996.5,P,1.2
1503879995.8,286046998.5,N,1.1
1503880015.6,286046998.4,N,1.0
1503880035.4,286047001.2,N,1.5
1503880055.3,286046998.6,N,1.4
1503880075.1,286046998.5,N,1.3
1503880076.0,286046998.5,N,1.2
1503880095.8,286047001.2,N,1.4
1503880115.7,286047000.2,N,1.4
1503880135.5,286046999.9,N,1.3
1503880155.3,286047000.3,N,1.3
1503880175.2,286682706.4,Y,0.0
1503880195.0,286046999.9,P,0.3
1503880195.9,286046999.9,N,0.3
1503880215.7,286047000.9,N,0.6
1503880235.6,286047001.1,N,0.7
1503880255.4,286047000.5,N,0.6
1503880275.2,286047000.6,N,0.6
1503880295.1,286047001.1,N,0.6
1503880296.0,286047001.1,N,0.6
1503880315.8,286047001.1,N,0.6
1503880335.7,286047000.9,N,0.6
1503880355.5,286047000.3,N,0.6
1503880375.3,286047000.7,N,0.6
1503880395.2,286046999.9,N,0.6
1503880415.9,286047002.7,Y,0.0
1503880435.7,286046999.9,P,0.3
1503880455.6,286047000.3,N,0.3
1503880475.4,286047000.4,N,0.2
1503880495.2,286047001.1,Y,0.0
1503880515.1,286046999.6,P,0.3
1503880516.0,286046999.6,N,0.3
1503880535.8,286046999.1,N,0.4
1503880555.6,286046999.0,N,0.5
1503880575.5,286046997.1,Y,0.0
1503880595.3,286046999.6,P,0.0
1503880615.2,286046999.2,P,0.2
1503880635.9,286046996.9,P,1.1
1503880655.7,286046999.1,N,1.0
1503880675.6,286046997.1,N,1.1
1503880695.4,286046999.1,N,1.1
1503880715.2,286046999.6,N,1.0
1503880735.1,286046997.1,N,1.1
1503880736.0,286046997.1,N,1.1
1503880755.8,286046996.8,N,1.2
1503880775.6,286046997.1,N,1.2
1503880795.5,286046997.1,N,1.2
1503880815.3,286046996.9,N,1.2
1503880835.1,286046999.5,N,1.2
1503880855.9,286046998.3,N,1.2
1503880875.7,286046999.0,N,1.1
1503880895.5,286046998.8,N,1.1
1503880915.4,286047001.1,N,1.3
1503880935.2,286046998.6,N,1.2
1503880955.0,286046998.6,N,1.2
1503880955.9,286046998.6,N,1.2
1503880975.8,286046998.8,N,1.2
1503880995.6,286046999.5,N,1.1
1503881015.4,286046998.8,N,1.1
1503881035.3,286046999.0,N,1.1
1503881055.1,286046999.5,N,1.1
1503881075.8,286046999.6,N,1.1
1503881095.7,286046996.6,Y,0.0
1503881115.5,286046998.6,P,0.0
1503881135.3,286047000.5,P,0.9
1503881155.2,286047001.2,N,1.2
1503881175.0,286047000.6,N,1.1
1503881175.9,286047000.6,N,1.0
1503881195.8,286047000.7,N,1.0
1503881215.6,286047001.1,N,1.0
1503881235.4,286047000.7,N,0.9
1503881255.3,286047000.4,N,0.9
1503881275.1,286047001.9,N,1.0
1503881276.0,286047001.9,N,1.0
1503881295.8,286047002.2,N,1.1
1503881315.7,286047002.3,N,1.1
1503881335.5,286047002.4,N,1.1
1503881355.3,286047002.5,N,1.2
1503881375.2,286047002.0,N,1.2
1503881395.9,286047001.8,N,1.1
1503881415.7,286047001.3,N,1.1
1503881435.6,286047001.4,N,1.1
1503881455.4,286047003.8,Y,0.0
1503881475.2,286047002.8,P,0.8
1503881495.1,286046999.7,N,1.3
1503881496.0,286046999.7,N,1.3
1503881515.8,286047002.3,N,1.3
1503881535.6,286047001.6,N,1.2
1503881555.5,286047001.7,N,1.1
1503881575.3,286047002.4,N,1.1
1503881595.1,286047002.5,N,1.1
1503881615.9,286047002.4,N,1.1
1503881635.7,286047002.6,N,1.1
1503881655.5,286047002.5,N,1.0
1503881675.4,286047002.5,N,1.0
1503881695.2,286047002.0,N,1.0
1503881715.0,286047002.4,N,1.0
1503881715.9,286047002.4,N,0.9
1503881735.8,286047001.6,N,0.9
1503881755.6,286047001.9,N,0.9
1503881775.4,286047011.9,Y,0.0
1503881795.3,286047000.6,P,0.6
1503881815.1,286046999.9,N,0.8
1503881835.8,286047002.3,N,1.0
1503881855.7,286046999.9,N,1.0
1503881875.5,286047000.2,N,1.0
1503881895.3,286046999.7,N,1.0
1503881915.2,286047002.8,N,1.2
1503881935.0,286047002.0,N,1.1
1503881935.9,286047002.0,N,1.1
1503881955.7,286047002.7,N,1.2
1503881975.6,286047002.4,N,1.2
1503881995.4,286047002.8,N,1.2
